This is the latest recevied weather packets stored in our database for station/object ZL3GL-4. If no packets are shown the sender has not sent any weather packets the latest 10 day(s).
| Time | Temp. | Humidity | Pressure | Rain* | Wind** | Luminosity | Snow |
|---|---|---|---|---|---|---|---|
| 1777499689 | 12.78° C | 75% | 1036.6 hPa | 0 mm | 3.58 m/s, 41° | - | - |
| 1777498845 | 11.67° C | 79% | 1036.6 hPa | 0 mm | 3.13 m/s, 11° | - | - |
| 1777498001 | 11.67° C | 77% | 1036.6 hPa | 0 mm | 1.34 m/s, 325° | - | - |
| 1777497157 | 11.11° C | 80% | 1036.5 hPa | 0 mm | 0 m/s | - | - |
| 1777496312 | 10° C | 81% | 1036.3 hPa | 0 mm | 0.45 m/s, 274° | - | - |
| 1777495469 | 9.44° C | 81% | 1036.3 hPa | 0 mm | 1.34 m/s, 316° | - | - |
| 1777494626 | 9.44° C | 83% | 1036 hPa | 0 mm | 0.89 m/s, 300° | - | - |
| 1777493785 | 8.33° C | 83% | 1035.9 hPa | 0 mm | 0.89 m/s, 309° | - | - |
| 1777492940 | 8.33° C | 83% | 1035.6 hPa | 0 mm | 1.34 m/s, 301° | - | - |
| 1777492096 | 8.33° C | 83% | 1035.3 hPa | 0 mm | 0 m/s | - | - |
| 1777491253 | 8.33° C | 81% | 1035.2 hPa | 0 mm | 0.89 m/s, 290° | - | - |
| 1777489569 | 8.89° C | 80% | 1034.7 hPa | 0 mm | 0.89 m/s, 217° | - | - |
| 1777487877 | 8.89° C | 82% | 1034.5 hPa | 0 mm | 0.45 m/s, 354° | - | - |
| 1777487037 | 8.89° C | 82% | 1034.3 hPa | 0 mm | 0.45 m/s, 145° | - | - |
| 1777486191 | 8.89° C | 84% | 1034.2 hPa | 0 mm | 0.89 m/s, 225° | - | - |
| 1777485347 | 8.33° C | 87% | 1033.9 hPa | 0 mm | 0.45 m/s, 231° | - | - |
| 1777484504 | 8.33° C | 89% | 1033.7 hPa | 0 mm | 0.45 m/s, 165° | - | - |
| 1777483661 | 8.33° C | 91% | 1033.5 hPa | 0 mm | 0 m/s | - | - |
| 1777482816 | 8.89° C | 92% | 1033.3 hPa | 0 mm | 0.45 m/s, 240° | - | - |
| 1777481973 | 8.89° C | 93% | 1033.2 hPa | 0 mm | 0.89 m/s, 152° | - | - |
| 1777481132 | 8.89° C | 92% | 1032.9 hPa | 0 mm | 0.89 m/s, 217° | - | - |
| 1777480287 | 9.44° C | 91% | 1032.7 hPa | 0 mm | 1.79 m/s, 212° | - | - |
| 1777479444 | 9.44° C | 83% | 1032.5 hPa | 0 mm | 1.34 m/s, 217° | - | - |
| 1777478600 | 10° C | 83% | 1032.2 hPa | 0 mm | 0.89 m/s, 307° | - | - |
| 1777477757 | 10° C | 86% | 1031.9 hPa | 0 mm | 1.79 m/s, 284° | - | - |
* Rain latest hour (hover to see other rain measurements)
** Current wind speed in m/s (hover to see current wind gust speed)